Weather History for KBLU - April, 2013

Change the Weather History Date:

Wednesday, April 10, 2013

  Actual Average Record
Temperature  
Mean Temperature 57 °F -  
Max Temperature 66 °F 52 °F 74 °F (1951)
Min Temperature 48 °F 36 °F 21 °F (1999)
Degree Days  
Heating Degree Days 8    
Growing Degree Days 7 (Base 50)    
Moisture  
Dew Point 31 °F    
Average Humidity 39    
Maximum Humidity 66    
Minimum Humidity 27    
Precipitation  
Precipitation 0.00 in - - ()
Sea Level Pressure  
Sea Level Pressure 30.08 in    
Wind  
Wind Speed 10 mph (WNW)    
Max Wind Speed 15 mph    
Max Gust Speed 30 mph    
Visibility 10 miles    
Events      
Averages and records for this station are not official NWS values.
T = Trace of Precipitation, MM = Missing Value Source: NWS Daily Summary

Daily Weather History Graph

Daily Weather History Graph

Search for Another Location

Airport or City:

Trip Planner

Search our weather history database for the weather conditions in past years. The results will help you decide how hot, cold, wet, or windy it might be!

Date:

Astronomy

Apr. 10, 2013 Rise Set
Actual Time 6:32 AM PDT 7:35 PM PDT
Civil Twilight 6:05 AM PDT 8:03 PM PDT
Nautical Twilight 5:32 AM PDT 8:36 PM PDT
Astronomical Twilight 4:58 AM PDT 9:10 PM PDT
Moon 6:32 AM PDT (4/10) 8:16 PM PDT (4/10)
Length of Visible Light 13h 57m
Length of Day
13h 03m
New Moon, 0% of the Moon is Illuminated
Apr 10
New Moon
Apr 18
First Quarter
Apr 25
Full
May 2
Last Quarter
May 9
New

Hourly Weather History & Observations

Time (PDT) Temp. Dew Point Humidity Pressure Visibility Wind Dir Wind Speed Gust Speed Precip Events Conditions
12:52 AM 48.0 °F 19.9 °F 33% 30.09 in 10.0 mi NE 12.7 mph 27.6 mph N/A   Clear
1:52 AM 48.9 °F 19.0 °F 31% 30.06 in 10.0 mi NNE 15.0 mph 29.9 mph N/A   Clear
2:52 AM 48.9 °F 19.9 °F 32% 30.06 in 10.0 mi NE 11.5 mph 21.9 mph N/A   Clear
3:52 AM 48.9 °F 21.0 °F 33% 30.08 in 10.0 mi ENE 8.1 mph 24.2 mph N/A   Clear
4:52 AM 48.0 °F 23.0 °F 37% 30.09 in 10.0 mi Variable 6.9 mph 21.9 mph N/A   Clear
5:52 AM 48.0 °F 24.1 °F 39% 30.09 in 10.0 mi NE 9.2 mph 18.4 mph N/A   Clear
6:52 AM 48.9 °F 26.1 °F 41% 30.13 in 10.0 mi Variable 6.9 mph 18.4 mph N/A   Clear
7:52 AM 52.0 °F 28.0 °F 40% 30.16 in 10.0 mi Variable 5.8 mph - N/A   Clear
8:52 AM 55.9 °F 30.9 °F 39% 30.16 in 10.0 mi NE 6.9 mph - N/A   Clear
9:52 AM 60.1 °F 32.0 °F 35% 30.17 in 10.0 mi Variable 5.8 mph - N/A   Clear
10:52 AM 62.1 °F 34.0 °F 35% 30.16 in 10.0 mi North 8.1 mph 17.3 mph N/A   Clear
11:52 AM 64.0 °F 35.1 °F 34% 30.14 in 10.0 mi NW 10.4 mph - N/A   Clear
12:52 PM 64.9 °F 35.1 °F 33% 30.12 in 10.0 mi Variable 5.8 mph - N/A   Clear
1:52 PM 66.0 °F 30.9 °F 27% 30.08 in 10.0 mi West 8.1 mph 21.9 mph N/A   Clear
2:52 PM 66.0 °F 37.0 °F 34% 30.07 in 9.0 mi West 10.4 mph 17.3 mph N/A   Clear
3:52 PM 64.9 °F 39.9 °F 40% 30.06 in 10.0 mi West 12.7 mph 18.4 mph N/A   Clear
4:52 PM 63.0 °F 37.0 °F 38% 30.06 in 10.0 mi West 10.4 mph 16.1 mph N/A   Clear
5:52 PM 63.0 °F 32.0 °F 31% 30.05 in 10.0 mi WNW 12.7 mph 19.6 mph N/A   Clear
6:52 PM 60.1 °F 34.0 °F 38% 30.05 in 10.0 mi West 6.9 mph - N/A   Clear
7:52 PM 57.0 °F 36.0 °F 45% 30.03 in 10.0 mi WSW 3.5 mph - N/A   Clear
8:52 PM 55.9 °F 36.0 °F 47% 30.01 in 10.0 mi West 4.6 mph - N/A   Clear
9:52 PM 55.0 °F 37.0 °F 51% 29.99 in 10.0 mi SW 4.6 mph - N/A   Clear
10:52 PM 54.0 °F 37.9 °F 55% 29.97 in 10.0 mi SSW 6.9 mph - N/A   Overcast
11:52 PM 52.0 °F 41.0 °F 66% 29.94 in 10.0 mi South 6.9 mph - N/A   Overcast